Regional Weather Roundup
Issued by NWS

Home | Current Version | Previous Version | Text Only | Print | Product List | Glossary On
Versions: 1 2 3 4 5 6 7 8 9 10 11 12 13 14 15 16 17 18 19 20 21 22 23 24 25 26 27 28 29 30 31 32 33 34 35 36 37 38 39 40 41 42 43 44 45 46 47 48 49 50
366
ASUS44 KLUB 041201
RWRTX
WEST TEXAS WEATHER ROUNDUP
NATIONAL WEATHER SERVICE LUBBOCK TX
700 AM CDT WED MAY 04 2016

NOTE: "FAIR" INDICATES FEW OR NO CLOUDS BELOW 12,000 FEET WITH NO
SIGNIFICANT WEATHER AND/OR OBSTRUCTIONS TO VISIBILITY.

TXZ004-006>008-010-012-014-016-OKZ002-041300-
TEXAS PANHANDLE/OKLAHOMA PANHANDLE

CITY           SKY/WX    TMP DP  RH WIND       PRES   REMARKS
AMARILLO       CLEAR     43  36  76 W9        30.20S
BORGER         CLEAR     47  38  71 W12       30.18R
CANADIAN       CLEAR     40  39  96 CALM      30.14S
DALHART        CLEAR     42  35  76 NW9       30.22R
DUMAS          CLEAR     40  35  81 W8        30.20R WCI  35
GUYMON         CLEAR     46  37  71 W8        30.16R
HEREFORD       CLEAR     40  36  86 SW3       30.22S
$$

TXZ026-029-035-045-048-041300-
SOUTHERN PANHANDLE/SOUTH PLAINS/ROLLING PLAINS

CITY           SKY/WX    TMP DP  RH WIND       PRES   REMARKS
CHILDRESS      CLEAR     47  40  76 NW7       30.13R
LUBBOCK        CLEAR     41  36  82 NW6       30.19S
SNYDER           N/A     52  47  81 NW8       30.17R
$$

TXZ052-054-060>062-072-078-127-140-154-169-041300-
PERMIAN BASIN/CONCHO VALLEY/BIG COUNTRY/EDWARDS PLATEAU

CITY           SKY/WX    TMP DP  RH WIND       PRES   REMARKS
ABILENE        CLEAR     50  49  96 CALM      30.14R
BROWNWOOD      FOG       50  50 100 CALM      30.13R VSB 1/4
JUNCTION       CLEAR     46  43  89 CALM      30.14R FOG
MIDLAND        CLEAR     48  43  82 NW6       30.19R
ODESSA         CLEAR     49  42  77 NW6       30.20R
SAN ANGELO     CLEAR     49  47  93 SW6       30.14R
WINK           CLEAR     46  41  82 N6        30.19S
$$

TXZ055-058-074-075-080-082-041300-
FAR WEST/SOUTHWEST MOUNTAINS/TRANS PECOS

CITY           SKY/WX    TMP DP  RH WIND       PRES   REMARKS
DRYDEN           N/A     59  48  67 N7        30.16
EL PASO        CLEAR     60  34  37 CALM      30.20R
FORT STOCKTON  CLEAR     56  47  71 S8        30.19S
MARFA          CLEAR     46  37  71 NE3       30.27R
PRESIDIO       FAIR      64  43  47 MISG      30.15R
$$

TXZ014-016-019-021>030-083-041300
TEXAS TECH WEST TEXAS MESONET/TEXAS PANHANDLE/NORTHERN SOUTH PLAINS

CITY           SKY/WX    TMP DP  RH WIND       PRES   REMARKS
ABERNATHY 5ENE   N/A     42  37  84 W9        30.22S
AMARILLO 9NNE    N/A     35  33  94 S2        30.22R
AMARILLO 7SSE    N/A     41  35  80 W8        30.22S
AMHERST 1NE      N/A     40  32  71 NW9       30.23S WCI  34
BOOTLEG 11WNW    N/A     42  34  73 W12       30.27S
CANADIAN 6E      N/A     42  39  89 W8        30.13S
CAPROCK CYN SP   N/A     51  37  59 W12       30.18R
CHILDRESS 2NNE   N/A     46  40  81 W8        30.14R
CLARENDON 2WSW   N/A     43  37  79 W9        30.18R
DIMMITT 2NE      N/A     39  34  82 W10       30.23S WCI  32
FLOYDADA 2NNE    N/A     38  35  91 W9        30.19R WCI  31
FRIONA 2NE       N/A     34  32  92 W5        30.25S WCI  30
GOODLETT 3W      N/A     47  42  81 NW14      30.12R
HEREFORD 2NW     N/A     39  33  77 W9        30.24S WCI  33
MCLEAN 1E        N/A     45  38  76 NW12      30.15S
MEMPHIS 1NE      N/A     48  40  74 NW6       30.15R
MULESHOE 2SSW    N/A     36  31  83 SW7       30.25R WCI  30
OLTON 6S         N/A     39  34  82 W9        30.23S WCI  32
PALO DURO SP     N/A     42  35  77 W10       30.22R
PAMPA 2E         N/A     46  39  76 W8        30.18R
PLAINVIEW 1S     N/A     42  36  76 W6        30.21S
SILVERTON 7ESE   N/A     39  35  86 W12       30.18S WCI  32
TULIA 2ENE       N/A     39  35  87 W9        30.22R WCI  32
TURKEY 2WSW      N/A     48  39  70 W10       30.16S
UMBARGER 3NNE    N/A     38  35  90 W8        30.23R WCI  32
$$

TXZ033>036-039>041-045>048-041300
TEXAS TECH WEST TEXAS MESONET/SOUTH PLAINS

CITY           SKY/WX    TMP DP  RH WIND       PRES   REMARKS
AIKEN 3WSW       N/A     37  33  87 W7        30.22R WCI  31
ANDREWS 2NE      N/A     48  43  83 W8        30.23R
ANTON 6SSW       N/A     39  31  73 NW7       30.22S WCI  34
BROWNFIELD 2S    N/A     44  40  88 NW8       30.22S
DENVR CTY 7WNW   N/A     40  36  88 NW8       30.23S WCI  34
GAIL 2ESE        N/A     46  43  90 N5        30.18R
LAMESA 2SE       N/A     48  45  91 NW7       30.21S
LEVELLAND 4S     N/A     40  36  84 W7        30.23S
LUBBOCK 3WNW     N/A     42  35  75 W7        30.22S
MORTON 1ENE      N/A     42  32  67 W7        30.24R
ODONNELL 1N      N/A     45  40  83 NW12      30.21R
PLAINS 3N        N/A     40  38  91 W9        30.24S WCI  34
RALLS 1SE        N/A     45  38  75 NW10      30.20S
REESE CENTER     N/A     40  34  80 NW8       30.23R WCI  34
SEAGRAVES 1SW    N/A     44  42  92 W9        30.22S
SEMINOLE 2NNE    N/A     45  42  89 NW8       30.22S
SLATON 2NE       N/A     42  37  84 W9        30.20S
SNYDER 3E        N/A     47  45  94 NW8       30.17R
SUNDOWN 8SW      N/A     39  36  89 W6        30.23S WCI  35
TAHOKA 3NNE      N/A     43  39  86 NW7       30.21R
WOLFFORTH 6SSW   N/A     44  38  79 NW8       30.22S
$$

TXZ031-032-036>038-042>044-041300-
TEXAS TECH WEST TEXAS MESONET/ROLLING PLAINS

CITY           SKY/WX    TMP DP  RH WIND       PRES   REMARKS
ASPERMONT 3NE    N/A     47  45  95 W3        30.14R
FLUVANNA 3WNW    N/A     51  45  79 NW12      30.18R
GRAHAM 5SSW      N/A     48  42  79 NW12      30.20R
GUTHRIE 10WSW    N/A     48  40  74 W1        30.14R
HASKELL 1NW      N/A     50  49  96 W5        30.12S
JAYTON 1SSE      N/A     44  42  94 W7        30.14S
KNOX CITY 3NW    N/A     47  45  90 SW5       30.13R
LK A HENRY 1NW   N/A     47  43  85 W7        30.18R
NORTHFIELD 1S    N/A     43  39  87 W8        30.15S
ODELL 4ENE       N/A     46  45  96 NW6       30.12R
PADUCAH 10SW     N/A     50  41  69 W12       30.14S
POST 1NE         N/A     51  39  64 W8        30.18R
RRING SPRGS 3N   N/A     44  40  83 W13       30.16S
SEYMOUR 3NW      N/A     49  47  93 SW3       30.11R
SPUR 1W          N/A     45  39  81 NW9       30.16
WEINERT 2NNE     N/A     49  48  93 W5        30.12R
WHITE RVR 6NE    N/A     47  38  72 NW12      30.17
$$

TXZ052-054-060>062-072-078-127-140-154-169-041300-
TEXAS TECH WEST TEXAS MESONET/PERMIAN BASIN/
CONCHO VALLEY/BIG COUNTRY/EDWARDS PLATEAU

CITY           SKY/WX    TMP DP  RH WIND       PRES   REMARKS
COYANOSA 2N      N/A     50  43  76 NW7       30.21R
JUNCTION 1SSW    N/A     45  44  97 S1        30.16R
MERTZON 3NNE     N/A     49  47  90 S3        30.18R
SAN ANGELO 7NW   N/A     50  47  91 W6        30.16R
STRLNG CT 4WSW   N/A     46  45  97 NW2       30.19R
ST LAWRNCE 5SW   N/A     48  44  88 W7        30.19R
SWEETWATR 11SW   N/A     48  48 100 W5        30.18R
WALL 1E          N/A     48  44  85 CALM      30.17R
$$

TXZ055-058-074-075-080-082-041300-
TEXAS TECH WEST TEXAS MESONET/FAR WEST/SOUTHWEST MOUNTAINS/TRANS PECOS

CITY           SKY/WX    TMP DP  RH WIND       PRES   REMARKS
PRSMN GAP BBNP   N/A     62  50  63 N15       30.18R
GUADLPE MTN NP   N/A     53  30  41 N7        30.30S
$$




USA.gov is the U.S. government's official web portal to all federal, state and local government web resources and services.